Weather History for MMCL - July, 2013

Change the Weather History Date:

Wednesday, July 3, 2013

  Actual Average Record
Temperature  
Mean Temperature 86 °F -  
Max Temperature 99 °F 94 °F 104 °F (2006)
Min Temperature 74 °F 76 °F 32 °F (2003)
Cooling Degree Days 22    
Growing Degree Days 36 (Base 50)    
Moisture  
Dew Point 70 °F    
Average Humidity 53    
Maximum Humidity 86    
Minimum Humidity 34    
Precipitation  
Precipitation 0.00 in - - ()
Sea Level Pressure  
Sea Level Pressure 29.84 in    
Wind  
Wind Speed 2 mph ()    
Max Wind Speed 14 mph    
Max Gust Speed -    
Visibility 9.6 miles    
Events      
Averages and records for this station are not official NWS values.
T = Trace of Precipitation, MM = Missing Value Source: Averaged Metar Reports

Daily Weather History Graph

Daily Weather History Graph

Search for Another Location

Airport or City:

Trip Planner

Search our weather history database for the weather conditions in past years. The results will help you decide how hot, cold, wet, or windy it might be!

Date:

Astronomy

Jul. 03, 2013 Rise Set
Actual Time 6:25 AM MDT 8:03 PM MDT
Civil Twilight 5:59 AM MDT 8:28 PM MDT
Nautical Twilight 5:28 AM MDT 8:59 PM MDT
Astronomical Twilight 4:56 AM MDT 9:31 PM MDT
Moon 2:53 AM MDT 4:25 PM MDT
Length of Visible Light 14h 29m
Length of Day
13h 38m
Waning Crescent, 18% of the Moon is Illuminated
Jul 3
Waning Crescent
Jul 8
New
Jul 15
First Quarter
Jul 22
Full
Jul 29
Last Quarter

Hourly Weather History & Observations

Time (MDT) Temp. Heat Index Dew Point Humidity Pressure Visibility Wind Dir Wind Speed Gust Speed Precip Events Conditions
1:49 AM 82.4 °F 83.9 °F 64.4 °F 54% 29.87 in 10.0 mi Calm Calm - N/A   Mostly Cloudy
2:45 AM 80 °F - 75 °F 82% 29.93 in 6 mi Calm Calm - -  
2:47 AM 82.4 °F 83.9 °F 64.4 °F 54% 29.84 in 10.0 mi Calm Calm - N/A   Mostly Cloudy
3:43 AM 82.4 °F 83.9 °F 64.4 °F 54% 29.83 in 10.0 mi Calm Calm - N/A   Mostly Cloudy
4:45 AM 82.4 °F 83.9 °F 64.4 °F 54% 29.82 in 10.0 mi Calm Calm - N/A   Mostly Cloudy
5:45 AM 78 °F - 72 °F 78% 29.90 in 6 mi Calm Calm - -  
5:50 AM 80.6 °F 81.8 °F 62.6 °F 54% 29.82 in 10.0 mi Calm Calm - N/A   Mostly Cloudy
6:53 AM 80.6 °F 83.2 °F 68.0 °F 65% 29.86 in 10.0 mi Calm Calm - N/A   Overcast
7:52 AM 84.2 °F 89.6 °F 71.6 °F 66% 29.85 in 10.0 mi Calm Calm - N/A   Overcast
8:40 AM 87.8 °F 92.6 °F 69.8 °F 55% 29.85 in 10.0 mi Calm Calm - N/A   Scattered Clouds
8:48 AM 83 °F - 71 °F 59% 29.94 in 10 mi Calm Calm - -   Haze
9:42 AM 89.6 °F 94.7 °F 69.8 °F 52% 29.87 in 15.0 mi East 5.8 mph - N/A   Partly Cloudy
10:45 AM 95.0 °F 104.5 °F 73.4 °F 49% 29.85 in 10.0 mi Calm Calm - N/A   Partly Cloudy
11:42 AM 95.0 °F 104.5 °F 73.4 °F 49% 29.86 in 10.0 mi Calm Calm - N/A   Partly Cloudy
11:45 AM 94 °F - 69 °F 34% 29.94 in 10 mi SW 2.2 mph - -   Haze
12:42 PM 98.6 °F 104.1 °F 68.0 °F 37% 29.85 in 10.0 mi Calm Calm - N/A   Partly Cloudy
1:44 PM 100.4 °F 109.3 °F 71.6 °F 39% 29.79 in 10.0 mi SSW 9.2 mph - N/A   Clear
2:40 PM 96 °F - 71 °F 36% 29.87 in 10 mi SSW 4.5 mph - -   Haze
2:42 PM 100.4 °F 109.3 °F 71.6 °F 39% 29.76 in 10.0 mi SSW 13.8 mph - N/A   Partly Cloudy
2:48 PM 86 °F - 72 °F 55% 29.88 in 6 mi SSW 2.2 mph - -  
3:40 PM 98.6 °F 107.7 °F 71.6 °F 42% 29.77 in 10.0 mi SSW 11.5 mph - N/A   Scattered Clouds
4:41 PM 96.8 °F 105.1 °F 71.6 °F 44% 29.75 in 10.0 mi WSW 11.5 mph - N/A   Scattered Clouds
5:40 PM 92 °F - 69 °F 38% 29.81 in 10 mi SSW 4.5 mph - -   Haze
5:43 PM 96.8 °F 105.1 °F 71.6 °F 44% 29.73 in 10.0 mi WSW 11.5 mph - N/A   Scattered Clouds
6:41 PM 93.2 °F 100.5 °F 71.6 °F 49% 29.76 in 10.0 mi West 11.5 mph - N/A   Mostly Cloudy
7:40 PM 91.4 °F 95.4 °F 68.0 °F 46% 29.78 in 10.0 mi WSW 6.9 mph - N/A   Mostly Cloudy
8:40 PM 87.8 °F 91.4 °F 68.0 °F 52% 29.81 in 10.0 mi Calm Calm - N/A   Mostly Cloudy
9:40 PM 87.8 °F 91.4 °F 68.0 °F 52% 29.83 in 10.0 mi Calm Calm - N/A   Mostly Cloudy
10:40 PM 86.0 °F 93.4 °F 73.4 °F 66% 29.87 in 10.0 mi SSE 8.1 mph - N/A   Mostly Cloudy
11:41 PM 86.0 °F 93.4 °F 73.4 °F 66% 29.87 in 10.0 mi SE 11.5 mph - N/A   Mostly Cloudy
11:48 PM 77 °F - 74 °F 86% 29.94 in 6 mi SSW 4.5 mph - -   Overcast